[TLELIST] Archives

 

[list_settings.list_name] Current TLEs

August 12th 2008 PDT

HST 1 20580U 90037B 08224.55402440 .00000252 00000-0 65720-5 0 1978 2 20580 028.4699 322.0990 0003761 247.4703 112.5491 15.00398147803309 ISS (ZARYA) 1 25544U 98067A 08224.85619213 .00010372 00000-0 78795-4 0 355 2 25544 051.6413 090.4146 0010399 058.3318 119.6337 15.72949125557299 CXO 1 25867U 99040B 08223.08333333 -.00000061 +00000-0 +10000-3 0 02312 2 25867 064.0180 078.9882 6934077 278.2943 355.6142 00.37804882003832 ____________________________________________________________________ These 2-Line ...Continue Reading

[list_settings.list_name] Current TLEs

August 11th 2008 PDT

HST 1 20580U 90037B 08222.69151607 .00000263 00000-0 74438-5 0 1964 2 20580 028.4698 334.2462 0003801 228.1978 131.8285 15.00397875803023 ISS (ZARYA) 1 25544U 98067A 08223.82526132 .00008988 00000-0 68983-4 0 288 2 25544 051.6410 095.7003 0010284 054.7432 041.5524 15.72921023557137 CXO 1 25867U 99040B 08223.08333333 -.00000061 +00000-0 +10000-3 0 02312 2 25867 064.0180 078.9882 6934077 278.2943 355.6142 00.37804882003832 ____________________________________________________________________ These 2-Line ...Continue Reading

[list_settings.list_name] Current TLEs

August 10th 2008 PDT

HST 1 20580U 90037B 08222.69151607 .00000263 00000-0 74438-5 0 1964 2 20580 028.4698 334.2462 0003801 228.1978 131.8285 15.00397875803023 ISS (ZARYA) 1 25544U 98067A 08223.18921414 .00008400 00000-0 64811-4 0 240 2 25544 051.6411 098.9613 0010451 052.2327 040.0128 15.72906000557033 CXO 1 25867U 99040B 08223.08333333 -.00000061 +00000-0 +10000-3 0 02312 2 25867 064.0180 078.9882 6934077 278.2943 355.6142 00.37804882003832 ____________________________________________________________________ These 2-Line ...Continue Reading

[list_settings.list_name] Current TLEs

August 9th 2008 PDT

HST 1 20580U 90037B 08221.56070768 .00000250 00000-0 64362-5 0 1957 2 20580 028.4698 341.6215 0003851 217.6997 142.3320 15.00397538802853 ISS (ZARYA) 1 25544U 98067A 08221.85545132 .00007737 00000-0 60123-4 0 155 2 25544 051.6414 105.7986 0010386 047.4175 047.4143 15.72879784556822 CXO 1 25867U 99040B 08223.08333333 -.00000061 +00000-0 +10000-3 0 02312 2 25867 064.0180 078.9882 6934077 278.2943 355.6142 00.37804882003832 ____________________________________________________________________ These 2-Line ...Continue Reading

[list_settings.list_name] Current TLEs

August 8th 2008 PDT

HST 1 20580U 90037B 08219.76471762 .00000267 00000-0 78087-5 0 1941 2 20580 028.4697 353.3330 0003866 198.8395 161.2052 15.00397323802582 ISS (ZARYA) 1 25544U 98067A 08219.81347098 +.00007326 +00000-0 +57264-4 0 00010 2 25544 051.6417 116.2666 0010257 040.2184 004.5083 15.72844703556500 CXO 1 25867U 99040B 08220.45833333 -.00000052 +00000-0 +10000-3 0 02304 2 25867 064.0066 079.0366 6927481 278.3372 358.2317 00.37803898003820 ____________________________________________________________________ These 2-Line ...Continue Reading

[list_settings.list_name] Current TLEs

August 5th 2008 PDT

HST 1 20580U 90037B 08216.83791993 .00000275 00000-0 83972-5 0 1923 2 20580 028.4698 012.4279 0003895 170.0994 189.9672 15.00396767802145 ISS (ZARYA) 1 25544U 98067A 08217.51666667 .00006963 00000-0 54742-4 0 9878 2 25544 051.6426 128.0409 0010103 031.9814 319.0763 15.72807347556134 CXO 1 25867U 99040B 08217.83333333 -.00000005 00000-0 10000-3 0 2293 2 25867 063.9918 079.0861 6922587 278.3872 000.8125 00.37805119 3815 ____________________________________________________________________ These 2-Line ...Continue Reading

[list_settings.list_name] Current TLEs

August 4th 2008 PDT

HST 1 20580U 90037B 08216.83791993 .00000275 00000-0 83972-5 0 1923 2 20580 028.4698 012.4279 0003895 170.0994 189.9672 15.00396767802145 ISS (ZARYA) 1 25544U 98067A 08216.39338084 .00006601 00000-0 52174-4 0 9801 2 25544 051.6420 133.7960 0010147 027.9325 078.7101 15.72789016555960 CXO 1 25867U 99040B 08217.83333333 -.00000005 00000-0 10000-3 0 2293 2 25867 063.9918 079.0861 6922587 278.3872 000.8125 00.37805119 3815 ____________________________________________________________________ These 2-Line ...Continue Reading

[list_settings.list_name] Current TLEs

August 3rd 2008 PDT

HST 1 20580U 90037B 08214.84237552 +.00000263 +00000-0 +74344-5 0 01917 2 20580 028.4701 025.4418 0003880 149.9028 210.1829 15.00396281801844 ISS (ZARYA) 1 25544U 98067A 08215.82337171 .00006597 00000-0 52161-4 0 9758 2 25544 051.6429 136.7160 0010097 025.9909 091.0731 15.72780811555875 CXO 1 25867U 99040B 08215.16666667 -.00000001 +00000-0 +10000-3 0 02281 2 25867 063.9828 079.1783 6918018 278.4162 357.7292 00.37804550003802 ____________________________________________________________________ These 2-Line ...Continue Reading

[list_settings.list_name] Current TLEs

August 2nd 2008 PDT

HST 1 20580U 90037B 08213.91112065 +.00000267 +00000-0 +77809-5 0 02032 2 20580 028.4688 031.5212 0003804 141.0094 219.0769 15.00396119801706 ISS (ZARYA) 1 25544U 98067A 08214.52829861 .00006661 00000-0 52667-4 0 9670 2 25544 051.6421 143.3541 0010039 021.3899 318.0608 15.72762111555663 CXO 1 25867U 99040B 08215.16666667 -.00000001 +00000-0 +10000-3 0 02281 2 25867 063.9828 079.1783 6918018 278.4162 357.7292 00.37804550003802 ____________________________________________________________________ These 2-Line ...Continue Reading

[list_settings.list_name] Current TLEs

August 1st 2008 PDT

HST 1 20580U 90037B 08213.91112065 .00000267 00000-0 77809-5 0 1907 2 20580 028.4688 031.5212 0003804 141.0094 219.0769 15.00396119801706 ISS (ZARYA) 1 25544U 98067A 08214.17538257 .00006736 00000-0 53220-4 0 9643 2 25544 051.6416 145.1630 0010031 020.1145 119.8035 15.72757264555618 CXO 1 25867U 99040B 08212.50000000 -.00000022 +00000-0 +10000-3 0 02271 2 25867 063.9809 079.2627 6909625 278.4678 354.6518 00.37795903003791 ____________________________________________________________________ These 2-Line ...Continue Reading
  • This mailing list is a public mailing list - anyone may join or leave, at any time.
  • This mailing list is announce-only.

International Space Station (ISS) / Hubble Space Telescope (HST) / Chandra X-Ray Observatory Orbital Data via EMAIL

Privacy Policy:

Private list